Wind_Speed
19 19 20 19 18 18 18 18 18 18 18 19 20 20 21 21 21 20 19 19 19 20 20 21 20 19 18 18 18 18 18 17 15 12 10 9 8 8 8 8 8 9 10 11 12 12 12 12 12 11 11 11 10 10 10 9 9 9 8 8 8 7 7 6 5 4 4 3 4 4 5 5 6 6 7 7 7 7 7 6 5 4 3 2 2
22 19 18 18 18 18 17 17 16 17 18 19 20 20 21 21 20 19 19 19 19 19 20 20 20 20 19 19 18 19 18 16 14 12 11 10 9 8 8 9 9 10 10 11 12 12 12 12 11 11 11 11 10 10 9 8 8 8 8 8 7 7 6 5 5 4 4 3 4 4 5 5 6 7 7 8 8 8 7 7 6 5 3 2 2
26 21 19 19 19 18 17 16 16 16 18 19 20 21 21 20 20 19 19 19 19 19 20 21 20 20 21 20 19 19 18 16 14 12 11 10 10 9 9 10 10 10 10 11 11 12 11 11 11 11 11 11 10 10 9 8 8 8 8 7 7 6 6 5 4 4 3 3 3 4 5 6 7 7 8 8 9 8 8 7 7 5 4 3 2
28 24 22 20 18 17 16 16 16 17 18 19 21 21 21 20 19 19 19 18 19 19 20 21 21 21 21 22 20 20 19 17 15 13 11 10 10 10 10 11 11 11 11 11 11 11 11 11 10 10 10 10 10 9 8 8 7 7 7 7 7 6 6 5 4 3 3 3 3 4 5 6 7 7 8 9 9 9 9 8 7 6 5 3 2
29 25 23 21 19 17 16 16 17 18 19 20 22 22 21 20 19 19 19 19 19 20 20 21 21 21 22 23 22 21 19 18 16 14 12 10 10 11 11 12 11 11 11 11 11 11 11 10 10 10 10 10 10 9 9 8 7 7 7 7 6 6 5 5 4 3 3 3 4 4 5 6 7 7 8 9 10 10 9 9 8 7 5 4 3
31 26 24 23 21 18 18 18 19 20 21 22 23 22 20 19 19 19 19 19 20 20 20 21 21 22 22 23 23 22 20 19 17 15 12 10 10 12 12 12 12 11 11 11 11 11 11 10 10 10 10 10 9 9 8 8 7 7 7 7 6 6 5 5 4 3 3 3 4 4 4 6 7 8 8 9 10 10 10 9 9 8 6 5 4
31 28 25 23 22 20 20 20 21 22 22 23 22 21 20 19 19 19 19 20 20 20 20 21 21 22 22 23 23 23 22 20 18 16 13 10 10 11 12 12 12 12 12 11 11 10 10 10 10 10 10 10 9 8 8 8 7 7 7 7 6 6 5 5 4 4 3 3 3 4 5 6 7 8 8 9 10 10 10 9 9 8 7 6 5
29 28 26 24 23 22 22 23 23 23 23 23 22 20 19 19 19 19 20 20 21 21 21 21 21 22 23 23 24 23 23 21 18 17 13 11 11 12 12 12 12 12 12 12 10 9 9 9 10 10 10 9 9 8 8 7 7 7 7 7 7 6 5 5 5 4 4 3 3 4 5 6 7 8 9 9 10 10 10 10 9 9 8 7 6
28 27 26 24 23 23 24 24 24 24 23 22 21 20 19 19 20 20 21 21 21 21 21 22 22 22 23 23 23 23 23 21 19 16 14 12 12 13 13 13 12 12 13 12 10 9 9 9 9 9 9 9 8 8 7 7 7 7 7 7 7 7 6 5 5 4 4 3 3 5 6 6 7 8 9 10 10 10 10 10 10 9 9 8 6
26 26 25 24 24 24 25 24 24 24 23 21 20 19 20 20 20 21 21 21 21 22 22 22 22 23 24 23 23 23 23 21 19 15 13 12 13 13 13 13 12 13 13 12 10 9 9 9 9 9 9 9 9 8 7 7 7 7 7 7 7 7 7 6 5 4 3 3 3 4 5 5 6 9 10 10 11 11 11 11 10 10 9 8 7
23 23 23 23 24 24 24 24 24 23 22 20 20 20 20 21 21 22 22 22 21 22 23 23 23 23 23 23 22 22 22 20 18 15 13 13 14 14 14 13 13 14 14 13 12 11 9 9 9 9 10 10 9 8 8 8 7 7 7 7 7 8 7 6 6 4 3 3 3 3 4 5 7 9 10 11 11 11 11 11 11 11 10 9 8
21 21 21 22 23 24 23 23 23 22 21 20 20 21 21 22 22 23 23 22 22 23 23 23 24 23 23 22 21 21 20 19 17 15 13 13 14 15 14 14 14 14 14 15 14 11 10 10 9 10 10 10 10 9 9 8 8 8 7 7 7 9 8 7 6 4 3 4 3 3 4 6 8 9 10 10 11 12 12 12 11 11 10 10 9
21 20 21 22 23 23 23 22 21 20 20 20 21 22 23 23 23 23 23 23 23 23 23 24 24 23 22 21 21 20 19 18 16 15 14 14 15 15 14 14 14 14 15 16 15 11 10 10 10 10 11 11 11 10 10 9 9 8 7 7 8 10 9 7 6 5 4 4 3 4 5 6 8 9 10 10 11 12 12 12 12 11 11 10 10
21 20 21 22 22 22 21 20 20 20 20 21 22 23 24 24 24 24 24 23 23 23 24 24 24 23 22 21 20 19 17 16 16 15 15 15 15 15 15 15 15 15 15 15 14 11 10 11 11 11 11 11 12 12 12 11 10 9 8 7 8 10 10 8 6 6 5 4 4 5 5 6 7 9 10 10 11 12 13 13 12 12 11 11 10
19 20 21 21 21 20 20 20 20 20 21 22 24 25 25 25 25 24 24 23 23 24 25 25 24 23 21 20 19 17 16 15 15 15 15 15 15 16 15 15 16 15 14 14 13 12 11 12 11 11 12 12 12 13 13 12 11 10 9 7 7 11 12 8 8 7 5 5 5 5 5 5 7 9 10 10 11 12 13 13 13 13 12 11 11
19 20 21 20 20 20 20 20 21 21 23 24 25 26 26 26 25 24 24 23 23 24 25 24 23 21 21 20 18 16 15 15 15 15 15 15 16 16 16 16 16 15 14 13 13 13 12 12 12 12 13 13 13 13 14 13 12 12 10 8 7 11 13 9 8 8 6 6 6 5 5 5 6 8 9 9 10 11 12 13 13 13 13 12 12
19 20 20 20 20 21 21 21 22 23 24 25 26 26 26 26 25 24 23 22 23 24 24 22 21 20 20 19 18 16 15 14 13 14 15 15 16 16 16 16 16 15 14 13 13 14 13 12 12 13 14 15 15 14 14 14 14 13 12 9 8 11 13 10 9 9 7 7 7 6 6 6 6 6 8 9 10 11 11 12 13 14 14 14 13
19 20 20 20 21 22 22 23 23 25 26 26 26 26 26 26 24 23 22 22 23 23 22 21 21 20 20 19 18 17 15 13 13 14 14 15 16 16 16 15 15 15 14 13 14 14 13 13 14 14 15 15 16 15 15 15 15 15 13 11 9 11 13 11 10 9 8 8 8 8 7 7 6 6 6 7 9 10 10 11 12 13 14 15 14
19 20 20 21 22 23 24 24 25 26 26 26 26 26 26 26 25 23 22 22 22 21 21 21 21 19 18 18 17 15 13 12 12 13 13 14 15 16 16 16 16 16 14 14 14 13 13 14 15 15 15 15 16 17 17 16 16 16 14 13 10 11 14 13 10 11 10 10 10 10 9 8 7 6 5 6 7 9 10 10 11 12 13 15 15
19 20 22 23 24 24 25 26 26 26 25 25 26 26 26 25 24 22 21 22 21 20 20 21 19 18 17 17 16 13 10 10 10 11 12 14 15 16 17 17 17 16 15 14 13 12 13 15 15 15 15 15 16 18 18 17 17 16 15 13 11 11 14 14 12 12 12 12 12 11 10 9 8 7 6 6 6 8 9 10 10 10 11 13 15
21 22 23 24 25 25 26 27 26 25 25 26 26 26 26 24 22 21 21 22 21 20 20 20 18 17 17 16 15 12 9 9 9 10 11 13 15 16 17 18 16 16 14 13 12 13 15 15 15 15 15 16 16 17 18 18 17 16 15 13 10 11 15 14 13 14 14 14 13 13 12 10 9 8 7 7 6 7 8 9 10 10 11 11 13
22 24 25 26 26 26 27 26 25 25 26 27 26 26 25 23 21 20 20 20 20 18 17 17 16 16 16 15 14 11 10 8 9 10 13 15 16 17 18 17 15 14 12 11 12 14 15 15 15 15 16 16 16 17 18 18 17 16 14 13 10 11 15 14 14 15 16 15 14 13 13 11 10 10 9 8 7 7 8 8 9 10 11 11 12
24 25 27 27 27 28 27 26 25 26 26 26 26 25 23 21 19 18 18 17 15 15 15 14 14 15 16 15 13 12 12 10 10 11 13 16 18 18 17 15 13 12 11 11 12 14 15 16 16 16 16 16 17 18 19 19 18 16 14 12 10 11 14 14 14 15 17 17 15 13 13 12 11 11 10 10 9 9 8 9 9 10 11 12 12
25 27 29 29 29 28 27 26 25 26 26 25 24 23 21 19 18 17 16 15 14 16 16 14 13 13 14 13 11 11 13 13 12 13 15 18 19 17 15 14 13 12 12 12 13 13 15 16 16 17 17 17 17 19 20 20 19 18 15 12 9 10 13 14 15 17 18 17 16 14 13 13 12 12 12 12 11 10 10 10 10 10 11 12 13
27 29 30 30 29 28 26 25 24 24 25 23 21 19 19 20 19 16 14 15 16 17 15 14 12 11 11 10 10 10 12 14 14 15 16 16 14 14 13 12 12 12 12 12 12 13 15 16 16 17 17 17 18 18 19 20 19 18 16 13 10 11 13 14 15 16 17 17 17 15 15 14 14 13 13 13 13 12 12 12 11 11 11 12 12
29 31 32 31 30 28 25 23 22 22 21 19 19 19 20 20 19 15 14 16 16 15 13 12 10 9 9 9 9 10 12 14 15 16 15 12 11 11 12 12 12 12 13 12 12 14 15 16 16 17 18 18 18 18 19 19 18 17 16 14 12 13 13 13 14 15 16 17 17 17 16 16 15 15 15 15 14 14 14 13 13 13 13 13 13
31 32 31 30 28 26 23 21 21 20 18 17 18 20 20 18 16 15 15 16 15 14 13 12 10 10 9 8 9 10 13 15 17 17 14 12 10 11 12 12 12 12 13 13 13 14 16 17 18 17 17 17 17 18 19 18 17 15 15 14 14 14 14 13 14 15 16 17 17 16 16 16 15 16 16 16 16 15 15 15 14 14 14 14 14
32 31 28 24 23 23 20 20 22 20 18 16 16 17 18 16 15 15 16 17 17 15 14 12 11 11 10 10 10 12 15 16 16 14 12 12 11 10 11 12 12 13 13 14 14 15 16 18 18 16 16 16 16 18 19 18 16 14 14 15 15 15 14 13 13 13 14 14 15 15 16 16 16 16 17 16 16 16 16 16 16 16 16 16 15
28 27 24 22 22 22 19 20 21 20 19 17 17 17 16 14 14 15 17 19 18 15 13 13 12 10 10 10 10 12 13 14 13 12 11 11 10 10 11 12 13 14 14 14 14 15 16 17 16 14 14 15 15 15 16 16 14 15 17 17 16 15 14 12 12 12 11 12 14 17 18 17 16 16 17 17 17 17 17 17 17 17 17 17 17
27 23 22 23 21 20 19 20 20 20 21 19 19 18 14 11 13 14 16 17 15 12 12 13 12 11 10 10 11 12 12 12 12 10 9 9 9 10 11 12 13 14 14 13 14 14 14 14 13 13 13 13 12 12 13 13 13 14 16 18 17 14 11 10 11 12 13 14 16 19 19 17 16 16 17 17 17 18 18 18 19 19 19 19 19
24 19 20 22 21 20 20 20 21 21 21 19 18 17 13 11 11 12 12 13 13 12 13 14 13 11 10 11 12 14 13 12 11 9 7 8 10 11 11 12 12 12 11 11 12 12 12 12 11 11 11 11 10 10 11 12 13 13 14 16 16 13 10 9 11 14 15 15 15 17 19 17 15 16 17 17 18 18 18 18 19 19 20 20 21
22 20 21 21 21 21 20 19 20 20 18 18 17 15 14 12 11 11 11 13 14 13 13 13 11 10 11 13 14 14 12 11 11 8 8 9 10 10 10 10 10 8 8 10 10 10 10 9 9 9 9 9 8 8 9 11 12 13 14 15 14 12 10 9 11 13 13 13 14 14 17 18 15 15 16 17 17 18 18 18 19 20 19 20 21
24 24 22 20 20 21 21 20 19 18 18 17 15 14 14 13 12 12 12 11 11 11 12 12 11 11 13 14 15 12 9 9 8 7 8 9 9 8 8 8 7 6 7 8 8 8 8 8 8 7 7 6 6 7 8 9 10 11 12 13 12 10 8 8 10 12 10 11 13 13 14 17 16 14 14 16 17 18 18 18 19 19 19 19 20
25 24 22 22 21 22 23 22 18 16 16 14 12 12 12 10 9 9 9 9 9 11 13 14 14 13 13 13 12 11 9 7 6 7 8 8 7 7 7 6 6 5 6 7 7 7 7 7 7 6 5 5 5 5 6 7 8 9 9 11 10 8 7 8 10 9 8 8 10 10 11 13 14 13 13 13 15 16 17 17 18 19 19 20 20
21 23 22 23 22 22 23 22 19 17 15 14 12 12 11 8 6 7 9 10 12 15 16 16 15 14 13 12 10 9 8 7 7 8 8 8 7 7 6 6 6 6 6 6 6 5 5 6 6 5 4 4 5 5 5 6 6 6 7 8 9 10 8 8 8 6 7 8 7 7 8 8 9 10 10 10 11 12 13 14 15 17 19 21 21
18 19 20 22 21 21 21 20 18 17 16 14 14 13 12 11 10 11 12 14 14 15 15 13 11 12 12 12 10 8 8 8 9 9 8 8 7 7 6 6 6 6 5 5 5 5 5 6 5 5 4 5 5 5 5 4 4 4 5 6 7 9 9 7 6 5 6 7 5 4 5 5 6 7 7 8 8 10 11 12 12 14 16 19 21
24 21 20 21 21 19 16 16 15 14 14 14 14 14 14 14 13 13 13 13 13 12 11 9 9 13 13 12 10 9 10 10 10 9 9 9 8 7 7 6 5 5 5 5 5 5 5 5 5 5 5 6 6 5 4 3 3 2 3 4 5 7 8 5 4 5 6 6 4 3 3 4 5 6 7 7 8 9 10 10 11 11 12 14 17
25 22 21 21 20 17 13 12 11 10 10 11 12 13 14 14 13 12 12 12 12 11 9 8 9 12 14 13 11 10 11 11 10 9 9 9 8 7 6 5 5 4 4 5 5 5 5 5 6 6 6 7 7 5 4 3 3 3 4 5 4 6 6 5 5 5 4 5 4 4 3 4 5 6 6 7 8 8 8 8 9 9 11 12 13
22 22 23 21 19 16 12 11 10 10 10 9 10 11 13 14 14 12 11 10 10 8 6 6 6 5 8 10 10 10 10 10 10 9 8 7 6 5 4 4 4 4 4 5 5 6 6 6 7 7 7 7 7 6 5 4 5 5 6 5 4 4 5 5 4 3 3 3 4 4 4 4 5 5 6 6 6 7 7 7 8 10 11 12 12
21 22 23 22 22 19 14 12 11 11 12 11 10 11 13 14 14 12 10 9 7 5 3 4 6 6 7 9 10 10 10 10 10 8 7 6 5 4 4 4 4 5 5 5 6 6 6 7 7 8 8 7 8 7 6 5 5 6 6 6 5 5 6 5 4 3 2 3 4 4 4 4 5 6 6 6 6 6 6 7 7 8 9 10 11
22 21 21 22 24 21 15 12 11 10 10 12 12 12 13 14 13 12 10 8 7 8 5 5 8 10 10 10 10 10 10 10 8 6 5 5 4 4 4 5 5 5 5 6 6 6 6 7 7 8 8 9 9 8 7 6 6 7 7 7 6 7 7 6 4 4 3 3 4 4 4 4 5 6 7 7 7 7 6 6 6 5 6 7 8
23 22 21 21 21 19 15 12 11 10 8 10 12 12 12 13 13 12 10 9 9 11 10 9 11 12 10 9 8 8 7 7 6 5 5 4 4 4 5 5 5 5 5 6 6 6 7 7 8 9 9 10 10 9 8 7 8 8 9 8 7 7 7 6 5 4 4 5 5 5 5 5 6 7 7 7 7 7 7 6 6 5 5 5 5
22 21 19 17 17 16 15 13 12 11 9 9 11 12 12 13 14 13 12 11 10 11 11 11 10 9 7 7 7 8 8 7 7 5 5 4 4 4 5 5 5 6 6 6 6 7 7 7 8 9 10 11 11 10 9 8 9 10 9 9 8 7 7 7 6 6 6 7 7 7 7 7 7 8 8 7 7 8 7 7 8 7 6 6 5
20 19 16 16 15 15 13 12 12 12 11 11 12 12 12 13 13 12 12 12 10 10 10 9 7 6 6 7 9 10 10 8 7 5 5 5 5 5 5 6 6 6 6 7 7 7 7 7 8 8 9 11 11 10 9 9 10 11 10 10 9 8 8 8 7 7 7 7 7 7 7 6 7 7 8 8 8 8 7 7 9 7 6 8 7
19 17 16 16 15 13 12 12 11 11 12 12 13 13 12 12 11 11 12 12 11 11 9 6 5 6 7 10 11 10 9 7 6 5 5 5 5 6 6 6 7 7 7 7 7 7 7 7 8 8 9 10 10 10 10 9 9 11 11 10 10 9 9 9 8 8 8 8 7 7 7 7 7 7 7 7 7 9 9 8 9 8 7 8 8
19 16 15 15 12 9 9 11 11 12 13 14 14 14 12 11 10 10 11 12 12 11 8 6 7 8 10 11 10 9 7 7 6 6 5 5 5 5 6 6 7 7 6 6 6 7 7 8 8 9 10 10 10 10 10 9 9 10 10 9 10 10 10 10 9 9 9 9 9 9 8 8 8 7 7 6 7 9 10 10 10 10 9 8 8
17 15 14 13 10 6 5 8 11 13 13 13 13 13 12 10 10 10 11 11 11 12 10 8 8 10 10 10 9 8 8 8 8 8 7 7 6 6 6 7 7 7 7 7 8 8 8 9 9 10 11 11 11 11 10 10 9 8 8 9 10 11 11 11 10 10 10 10 10 10 9 9 8 8 7 7 8 9 10 11 11 11 10 8 8
16 13 13 13 11 9 7 8 10 11 12 12 12 12 12 11 9 10 10 9 10 11 10 9 9 10 8 8 9 9 10 10 10 10 10 9 8 7 7 7 8 8 8 9 9 10 10 10 11 12 12 12 12 12 11 10 10 9 9 10 10 11 11 11 11 11 11 11 10 10 10 9 9 8 8 8 9 10 10 10 10 10 10 9 8
15 13 12 12 11 11 10 10 10 11 12 13 12 12 12 11 11 11 10 8 7 9 10 10 11 10 9 9 10 11 11 10 11 11 12 11 10 9 8 8 8 9 9 10 10 11 12 12 13 14 14 13 13 12 12 12 11 11 11 11 11 11 10 10 11 11 11 11 10 10 10 10 10 10 10 11 10 10 10 10 10 9 9 9 10
14 12 11 10 9 9 10 10 10 10 12 12 11 11 12 12 13 12 11 10 9 10 10 11 12 12 10 10 10 11 11 12 12 12 12 12 12 11 10 9 10 10 10 10 10 11 12 12 13 13 13 13 13 13 13 13 13 12 12 12 11 11 11 11 12 11 11 10 10 10 10 10 11 11 12 11 11 11 11 11 11 11 11 11 11
15 13 11 10 9 9 10 9 8 8 9 9 9 11 12 13 14 13 13 12 13 12 12 13 14 13 11 10 11 12 14 15 15 13 13 13 13 13 12 12 12 12 11 10 10 9 10 11 11 12 12 12 12 12 12 13 13 13 12 12 12 11 11 12 12 11 11 10 9 9 10 11 12 12 12 12 11 12 12 13 13 12 11 11 11
Wind_Direction
286 285 288 290 286 282 276 275 278 281 283 283 285 288 293 299 305 308 307 308 310 312 317 320 322 324 325 325 325 326 327 325 321 313 300 294 297 304 310 312 314 313 315 317 318 318 316 314 314 312 310 306 302 300 301 303 306 306 308 310 311 311 310 309 303 292 276 255 240 220 203 203 203 196 188 181 175 170 163 155 148 143 137 118 99
288 288 289 287 282 280 276 276 277 280 281 280 284 289 294 299 303 303 304 306 309 313 316 317 319 321 322 323 323 324 325 323 319 312 298 290 294 301 306 309 312 314 316 320 321 321 317 315 315 314 311 308 305 304 306 308 308 307 306 308 307 306 307 305 299 289 275 255 240 227 210 204 205 199 193 185 179 173 166 160 154 150 149 136 113
289 291 291 286 280 278 276 276 278 279 279 281 286 291 295 299 301 300 302 305 309 312 313 315 317 319 319 320 321 321 321 320 316 309 297 288 291 298 302 305 309 313 316 319 320 319 317 316 318 317 313 309 307 307 308 308 305 303 303 304 305 307 309 306 299 287 276 258 239 229 216 206 205 203 197 190 182 176 170 163 158 156 156 153 135
287 287 287 284 280 279 276 276 278 279 280 282 287 292 295 298 298 298 301 305 309 310 311 313 316 317 317 317 318 318 317 315 313 307 298 291 290 294 295 298 304 310 314 317 317 317 315 317 320 317 313 310 308 308 308 307 304 304 304 305 307 311 313 309 298 282 271 258 243 230 220 209 206 205 200 195 187 180 173 166 162 162 162 163 156
284 284 281 277 277 278 276 276 280 281 282 284 288 292 295 296 296 296 300 304 306 306 309 313 314 314 313 314 315 315 313 311 311 306 301 297 292 289 288 291 297 303 309 312 313 314 316 320 321 316 312 310 310 311 311 310 308 308 307 307 310 314 314 306 292 275 265 251 239 230 222 214 210 209 203 199 192 183 177 169 166 165 167 171 170
281 279 275 274 275 275 275 277 281 283 283 283 287 291 293 293 293 295 299 301 303 304 308 311 311 311 311 311 311 311 309 308 309 306 303 301 293 286 285 287 292 298 304 307 310 313 317 321 318 314 311 309 312 314 313 312 311 310 308 306 308 310 307 299 284 268 257 240 231 229 224 216 213 213 206 202 197 188 180 174 170 169 172 176 177
276 274 271 271 272 272 274 277 281 283 282 283 288 291 291 290 292 294 297 298 300 304 306 307 307 307 307 308 308 307 306 306 307 307 304 298 290 284 284 286 290 295 299 302 307 312 316 318 313 311 308 308 311 313 313 313 311 310 307 303 302 301 300 293 279 264 248 232 222 225 227 220 214 216 209 204 202 193 184 178 174 174 177 181 179
270 271 268 267 268 269 271 276 279 279 279 284 287 287 287 288 290 292 294 296 299 302 303 303 303 303 304 304 305 305 304 303 305 307 302 293 287 285 284 285 288 292 294 297 302 308 312 312 308 307 305 305 308 311 313 313 311 307 304 301 296 295 294 287 278 266 246 229 218 223 224 219 216 218 214 206 204 200 191 183 179 178 181 186 184
265 267 266 264 265 266 270 274 275 275 279 282 283 283 284 286 288 290 292 295 298 298 298 299 299 300 301 302 303 302 301 301 305 305 298 290 286 286 285 284 287 288 289 294 299 304 307 307 305 305 302 302 304 307 310 310 308 302 299 297 293 290 286 281 275 267 252 234 225 226 221 216 218 221 217 208 205 204 196 189 184 182 183 188 190
262 263 262 262 264 266 269 270 271 274 278 279 279 281 283 285 287 288 290 293 294 294 294 295 296 297 298 300 300 298 297 299 303 302 294 288 285 285 284 285 286 285 287 292 296 301 304 302 301 301 299 300 300 303 305 305 303 297 293 291 289 285 279 278 272 266 256 242 234 229 222 218 222 224 220 212 207 206 202 194 189 187 186 189 192
259 260 259 259 261 264 265 266 270 274 275 276 277 280 281 283 284 286 288 290 290 290 291 292 293 295 296 298 296 294 294 297 300 297 290 286 284 282 283 286 287 284 286 289 291 296 298 296 297 296 295 296 297 299 299 299 298 293 287 285 284 277 273 273 271 268 257 250 240 226 226 228 227 225 221 215 209 208 206 200 194 191 190 190 194
255 256 255 256 259 261 263 267 271 273 273 275 276 278 278 280 282 283 285 285 286 286 288 290 291 292 295 295 293 291 291 293 296 292 286 284 282 282 283 286 286 284 284 286 289 291 290 290 292 292 291 292 293 294 294 294 293 289 283 279 275 271 267 263 266 265 254 255 242 218 225 232 230 226 221 217 212 210 209 206 201 196 195 193 195
256 255 254 256 259 262 266 270 272 272 272 273 273 274 276 277 278 279 281 281 282 284 286 287 288 291 293 291 288 287 287 290 290 285 282 282 281 281 282 283 284 284 283 286 288 284 281 285 288 289 290 292 294 294 292 291 289 286 281 275 270 266 261 255 258 258 249 247 235 220 223 230 232 228 222 218 215 213 212 211 207 202 201 199 198
258 256 257 259 262 266 269 271 271 271 270 270 270 271 272 273 274 276 278 279 281 283 283 283 285 289 288 285 284 282 283 286 283 280 280 280 280 281 281 280 281 281 282 285 283 276 275 281 284 288 292 295 296 295 293 291 288 285 281 273 265 262 258 249 245 247 246 242 232 221 219 226 232 231 225 220 217 216 215 214 212 209 207 206 203
258 258 260 263 265 268 269 269 268 267 266 266 267 268 269 271 273 275 277 280 281 280 280 282 284 285 283 280 278 277 279 281 278 276 278 279 278 277 277 277 276 277 281 281 275 271 274 279 284 289 293 295 295 294 293 291 287 283 279 271 261 260 256 245 238 239 237 240 236 224 217 222 229 231 227 222 221 219 218 217 215 214 212 212 210
257 259 262 264 267 267 267 266 264 263 263 264 265 267 270 273 274 277 279 281 280 279 281 284 285 283 279 277 273 271 274 275 273 274 275 276 273 270 270 272 275 279 280 275 271 272 275 279 285 291 292 293 291 291 291 289 285 281 278 271 256 255 255 246 239 238 233 234 236 228 215 215 225 230 229 225 224 224 223 221 219 217 216 216 215
256 258 261 263 265 265 264 262 260 260 261 263 266 269 272 274 276 279 281 281 280 280 283 284 283 279 276 274 269 266 271 271 270 272 273 271 269 268 268 270 276 281 278 269 268 271 274 279 285 290 291 291 290 289 289 287 284 281 278 271 254 251 254 247 239 238 233 233 235 233 220 210 218 228 230 228 226 227 227 226 224 222 220 219 219
254 255 259 261 262 262 259 258 258 259 261 264 268 271 273 274 277 279 279 280 281 281 283 282 280 276 274 273 267 262 266 267 267 269 271 269 268 270 272 272 274 277 271 261 263 268 272 279 286 289 289 290 290 289 287 284 283 280 277 271 259 250 250 244 238 238 232 230 231 229 223 211 210 222 231 231 231 230 230 230 229 228 225 223 223
250 253 257 259 260 258 256 256 256 258 262 266 269 271 273 274 277 278 279 279 279 279 280 280 278 274 271 270 262 257 261 264 265 267 271 271 270 272 274 276 275 273 263 253 259 266 272 281 287 289 289 290 290 288 285 283 282 280 277 273 263 250 245 241 238 236 229 226 229 225 221 215 208 211 223 232 236 235 235 235 235 235 233 230 227
246 252 256 257 257 255 254 254 256 260 264 266 268 270 272 274 278 279 278 276 275 276 279 279 275 270 267 262 252 249 256 262 267 270 272 270 267 267 270 275 274 267 256 252 259 265 273 281 287 288 289 288 287 287 287 286 284 281 278 274 267 251 244 240 235 235 230 223 225 225 220 216 212 207 213 225 234 237 238 238 239 240 241 238 234
245 251 255 256 255 254 253 255 259 263 264 265 267 269 272 275 278 277 275 274 274 274 276 275 271 268 262 252 245 244 246 254 269 277 276 271 265 263 267 271 265 254 248 251 259 266 273 279 282 283 283 283 284 285 287 286 283 279 277 274 266 252 246 240 233 233 231 224 221 223 222 217 215 212 213 221 231 237 240 241 241 242 244 245 242
245 251 254 255 255 255 255 259 262 263 263 265 268 271 275 277 276 275 276 276 274 272 272 270 267 264 254 245 244 239 234 249 271 279 280 275 268 264 264 262 251 243 244 249 257 266 274 277 278 278 278 279 280 279 278 276 273 270 268 266 258 249 248 243 234 232 232 229 222 220 223 221 218 217 217 221 228 236 241 244 243 244 245 246 247
247 250 253 255 257 257 259 262 263 263 264 267 271 275 277 277 275 276 279 276 269 269 271 265 260 259 254 249 247 237 235 252 270 275 278 273 267 262 256 246 241 241 244 249 258 268 275 276 277 276 276 277 276 274 271 269 267 263 261 259 251 245 248 244 236 231 232 232 227 221 221 223 223 221 220 220 224 232 239 243 245 245 245 246 247
248 250 254 256 258 259 262 264 265 267 269 272 275 277 276 273 272 277 277 271 266 269 267 257 254 257 253 247 245 239 242 256 264 267 272 269 262 252 240 233 237 242 245 252 262 270 274 276 277 276 275 275 274 271 269 269 268 266 264 262 251 241 243 242 236 231 231 231 229 225 222 222 222 222 222 221 221 226 234 240 243 246 246 246 247
251 253 256 257 259 262 264 266 268 271 273 277 279 278 276 271 269 272 273 271 266 265 261 251 252 254 245 238 236 238 246 255 259 265 270 264 249 235 230 232 238 242 249 258 267 272 273 275 274 274 275 274 271 268 267 267 268 268 267 264 253 240 238 238 237 234 233 232 230 227 223 221 219 220 223 222 221 223 228 234 239 243 246 248 249
254 255 257 258 261 264 266 268 268 271 274 274 275 276 276 273 269 268 272 272 265 259 254 252 251 242 235 231 226 234 246 250 257 266 264 248 234 233 238 241 244 248 256 265 271 272 272 271 269 270 274 273 269 265 264 263 264 266 266 262 252 243 237 233 234 233 233 232 232 230 226 224 221 223 224 223 223 223 224 228 233 238 243 247 250
257 257 258 262 265 266 269 272 269 268 270 270 271 271 272 273 274 275 275 271 267 261 254 254 245 230 233 234 226 234 244 249 257 260 249 239 241 244 245 247 250 256 263 268 268 268 267 266 267 269 271 270 266 264 262 258 257 259 262 259 251 245 239 231 228 228 230 232 234 235 234 232 228 227 227 226 226 226 224 225 229 233 238 243 248
259 260 261 264 269 274 278 275 267 263 265 267 270 271 274 277 279 276 270 268 271 266 254 250 240 230 249 260 248 242 245 247 247 241 234 239 246 246 247 250 254 259 263 266 264 263 263 265 268 268 265 263 264 263 259 255 251 252 257 254 248 246 243 238 233 230 233 238 243 243 241 238 234 231 229 228 228 228 228 227 228 230 233 237 242
259 261 261 263 268 276 282 278 271 268 268 269 272 277 281 280 276 270 265 266 266 260 251 250 246 248 263 262 250 245 243 238 232 229 231 238 243 246 249 250 253 257 260 262 262 262 263 267 270 266 260 259 261 258 252 251 249 253 256 249 243 244 247 248 246 242 240 240 240 239 237 235 235 235 234 233 232 231 231 231 231 231 233 234 237
263 263 259 261 268 275 279 281 280 278 277 276 276 280 283 274 270 265 264 264 259 258 261 259 257 257 256 248 246 249 247 238 231 227 231 239 245 247 247 248 251 253 257 259 260 262 265 269 269 263 257 254 254 247 241 242 247 253 252 244 238 240 249 254 254 250 242 235 233 235 234 231 233 235 236 236 235 234 233 233 234 234 235 235 236
263 257 256 261 268 275 278 281 283 283 284 283 280 282 280 271 269 263 258 259 261 267 267 260 257 251 247 251 256 259 254 241 225 221 240 248 243 242 243 247 251 254 257 259 260 263 266 269 266 258 253 248 247 241 234 239 247 249 246 243 236 235 248 256 256 253 246 241 240 238 233 230 235 238 239 241 239 238 237 237 237 236 236 238 239
255 250 260 268 269 271 276 282 286 286 285 284 283 283 278 272 270 260 252 258 266 266 255 249 253 252 255 264 267 263 251 231 218 232 252 242 233 237 243 249 256 257 257 258 262 266 266 266 261 254 251 247 248 246 239 240 243 241 241 241 237 240 252 252 251 251 250 250 250 245 234 231 238 243 245 248 247 246 244 244 244 242 240 240 241
249 251 262 272 277 278 277 282 288 285 280 282 285 283 280 277 267 254 251 258 260 254 247 245 252 262 269 272 268 255 230 214 222 239 239 229 230 237 242 248 253 250 251 258 264 269 267 261 255 254 254 252 254 251 240 233 232 231 234 239 241 246 246 234 237 245 252 257 255 252 240 233 237 245 250 252 254 254 254 253 253 251 248 245 243
254 256 266 274 282 287 279 276 280 281 277 278 283 283 288 289 268 244 241 253 261 263 265 264 265 270 270 265 259 239 216 215 229 230 227 229 231 230 232 236 238 241 247 255 263 268 265 255 249 249 248 247 247 241 229 220 219 222 227 235 238 233 221 214 224 236 247 256 258 252 238 233 237 243 250 254 257 259 260 260 258 258 257 254 249
267 263 271 278 284 288 280 271 272 277 276 276 277 282 288 291 273 248 247 261 274 277 275 275 273 267 254 243 240 226 220 230 233 226 223 222 218 218 221 227 234 240 241 246 255 258 252 246 242 241 243 241 237 230 221 214 218 224 229 236 232 225 223 221 223 231 235 241 254 239 221 227 234 238 248 258 262 262 262 261 260 259 257 255 253
287 280 279 281 282 287 280 269 273 279 280 277 275 279 283 282 277 269 267 270 273 273 272 272 262 246 230 217 210 212 224 232 227 218 212 209 208 209 217 228 238 242 241 243 244 241 243 243 240 243 247 246 241 237 229 217 222 233 236 235 223 215 220 224 225 227 226 232 247 228 210 223 233 239 255 266 267 266 265 265 265 263 260 256 252
287 292 292 286 279 287 284 271 277 285 283 278 274 278 279 279 277 274 275 275 268 265 269 263 241 235 230 214 203 210 219 218 216 209 200 201 203 209 220 233 242 248 249 243 237 238 243 246 246 250 252 250 251 251 241 219 226 240 218 210 199 201 211 220 222 217 221 230 230 217 217 237 244 250 259 262 262 266 268 267 267 268 269 265 258
285 289 298 295 281 283 288 280 281 285 288 286 279 277 277 275 274 275 280 277 264 258 260 253 242 245 242 228 215 210 211 214 216 207 198 198 203 212 223 233 244 250 249 242 238 239 243 247 251 254 253 253 256 257 249 229 233 227 200 201 213 216 216 214 212 209 219 224 212 211 230 239 241 249 258 259 258 261 264 264 263 264 269 274 273
285 287 294 296 288 284 284 282 277 273 281 287 280 272 272 270 270 275 278 273 262 252 248 233 221 224 224 221 218 214 215 218 214 205 200 201 207 217 224 235 244 246 245 240 237 236 239 244 250 256 258 258 259 261 256 241 233 225 217 229 243 232 216 213 223 230 220 208 208 227 242 243 243 251 264 267 265 264 263 262 263 266 270 273 278
287 291 291 290 291 289 285 283 277 272 273 270 268 266 265 265 267 272 271 268 254 215 178 199 208 211 214 220 227 223 218 213 205 201 202 202 208 220 231 244 248 249 247 240 237 234 235 241 246 253 257 257 259 261 260 249 237 232 239 251 249 231 226 233 250 265 240 211 217 230 237 246 252 255 261 265 274 281 276 268 267 275 277 272 273
290 296 298 295 292 286 281 280 276 275 273 264 262 264 263 264 266 270 267 264 243 217 222 244 238 242 239 232 232 225 213 206 203 205 207 208 217 229 241 247 249 252 250 244 244 241 238 241 244 248 251 252 253 256 256 253 247 244 247 250 243 234 241 254 270 281 269 240 235 233 236 246 250 254 256 258 268 278 282 276 273 288 287 273 271
292 298 303 305 300 286 279 282 277 277 278 267 262 261 260 262 265 267 260 252 239 235 251 261 251 249 247 242 241 232 220 216 220 225 225 227 230 237 246 249 253 256 255 251 249 245 243 242 244 247 248 249 251 252 250 249 252 255 256 257 252 240 244 254 259 258 257 255 253 251 249 247 249 254 259 262 265 265 272 279 275 280 283 281 279
291 297 301 306 307 295 284 282 278 275 273 263 259 257 256 259 262 261 251 241 237 243 256 259 253 248 245 245 245 239 235 232 230 230 230 232 232 238 248 254 259 259 257 253 248 247 247 244 246 247 248 250 252 252 250 245 247 253 258 262 262 251 246 248 245 238 238 242 245 248 248 244 247 256 263 266 267 263 269 280 275 269 270 271 276
290 294 298 301 303 299 288 280 277 273 266 257 255 256 255 256 257 253 242 237 239 245 251 254 255 254 248 242 238 236 237 233 229 228 227 228 232 235 239 243 246 245 246 247 247 249 250 248 248 248 249 252 254 255 253 248 248 251 255 259 259 254 251 254 256 255 252 250 248 252 253 246 246 256 265 269 269 269 273 276 271 268 264 258 260
290 293 296 294 292 293 290 283 274 263 256 250 250 253 256 255 251 243 238 238 242 243 242 248 253 248 242 236 233 234 234 235 237 237 235 232 230 233 233 230 229 230 236 241 244 249 252 251 251 251 252 255 258 257 255 251 250 251 252 254 255 254 254 258 261 262 265 266 262 261 260 254 253 256 262 262 262 265 267 265 264 265 259 251 256
288 290 290 288 285 290 292 280 262 249 244 243 245 248 249 248 243 238 236 237 244 247 242 242 240 232 232 233 232 233 238 250 257 257 255 249 242 239 235 230 228 227 228 232 237 241 245 249 251 252 253 254 256 255 254 253 249 250 253 255 257 258 258 260 260 259 260 264 264 265 263 260 261 259 254 250 250 254 257 257 259 262 261 254 255
284 284 281 279 276 278 291 281 258 243 240 240 240 238 235 235 236 232 231 238 249 250 238 233 236 230 230 233 235 244 256 269 274 272 271 268 261 248 236 232 234 234 232 233 235 237 239 242 246 249 251 253 254 254 255 255 254 255 258 259 262 263 263 264 266 265 264 263 263 265 264 262 262 258 249 243 242 245 249 251 253 255 256 251 245
280 277 273 269 263 258 272 286 267 247 240 236 231 226 223 225 227 224 230 246 252 240 225 223 229 229 234 248 258 269 275 279 280 278 277 275 269 258 245 236 236 238 240 241 242 242 242 240 242 244 246 248 251 252 254 256 258 259 257 258 260 263 266 269 272 273 271 267 264 264 264 264 260 248 240 238 238 241 246 249 250 250 248 242 238
273 270 267 264 262 258 260 270 267 250 238 228 219 218 220 222 223 224 235 246 237 218 211 217 224 227 240 262 273 276 277 277 276 276 277 275 270 262 252 243 241 241 243 247 249 250 249 247 245 242 241 242 244 246 249 251 252 252 252 252 254 256 260 263 266 268 269 268 265 264 263 262 256 246 240 236 234 238 244 246 245 244 242 242 245
266 265 262 262 264 256 248 250 250 241 232 224 213 211 213 212 214 220 229 232 223 216 213 216 222 229 242 259 267 269 272 274 274 274 275 274 270 264 255 248 246 246 248 251 252 252 252 249 246 242 238 237 237 239 241 243 244 245 246 248 248 247 246 249 253 257 260 262 261 261 258 256 253 249 243 237 235 238 241 241 241 241 243 246 251
263 260 255 257 257 247 238 232 224 214 213 211 207 208 207 205 208 216 223 227 228 229 229 225 222 227 237 246 252 259 267 271 270 267 266 266 265 261 256 249 246 248 252 255 254 252 250 246 242 238 234 233 234 235 236 237 239 240 242 243 242 241 239 242 246 250 254 255 254 252 250 249 248 246 243 239 240 241 241 242 244 246 249 251 254
Height
5869 5868 5868 5867 5866 5866 5866 5867 5867 5867 5866 5866 5865 5865 5865 5864 5864 5863 5862 5861 5860 5859 5858 5858 5858 5858 5858 5857 5856 5856 5855 5855 5854 5853 5853 5853 5852 5852 5852 5852 5852 5851 5850 5849 5849 5848 5847 5847 5846 5846 5845 5844 5844 5843 5843 5843 5842 5842 5841 5841 5840 5839 5839 5839 5839 5839 5839 5839 5839 5839 5839 5839 5839 5839 5839 5839 5839 5839 5839 5839 5840 5840 5840 5840 5840
5866 5867 5867 5866 5865 5865 5865 5865 5865 5865 5864 5864 5864 5864 5863 5863 5862 5862 5861 5860 5859 5858 5857 5857 5857 5856 5856 5856 5855 5855 5854 5854 5853 5852 5852 5852 5852 5852 5852 5851 5851 5850 5849 5849 5848 5847 5847 5846 5846 5845 5844 5844 5843 5843 5843 5842 5842 5841 5841 5840 5839 5839 5839 5838 5838 5838 5838 5838 5839 5839 5838 5838 5839 5838 5838 5838 5839 5839 5839 5839 5839 5840 5840 5840 5840
5864 5865 5865 5865 5864 5864 5864 5864 5863 5863 5862 5862 5862 5862 5862 5861 5861 5860 5859 5859 5858 5857 5857 5856 5856 5855 5855 5854 5854 5854 5853 5853 5852 5852 5851 5851 5851 5851 5851 5851 5850 5849 5848 5848 5847 5846 5846 5845 5845 5844 5844 5843 5843 5843 5842 5842 5841 5841 5840 5840 5839 5839 5838 5838 5838 5838 5838 5838 5838 5838 5838 5838 5838 5838 5838 5838 5838 5839 5839 5839 5839 5839 5840 5840 5840
5862 5863 5863 5863 5862 5862 5862 5862 5862 5861 5861 5861 5861 5861 5860 5860 5859 5859 5858 5857 5857 5856 5856 5855 5854 5854 5853 5853 5853 5853 5852 5852 5851 5851 5850 5850 5850 5850 5850 5850 5849 5848 5848 5847 5846 5845 5845 5844 5844 5844 5843 5843 5842 5842 5841 5841 5841 5840 5840 5839 5839 5838 5838 5838 5838 5838 5838 5838 5838 5838 5838 5838 5838 5838 5838 5838 5838 5838 5839 5839 5839 5839 5840 5840 5840
5861 5862 5862 5862 5861 5861 5860 5860 5860 5860 5860 5860 5860 5859 5859 5859 5858 5857 5856 5856 5855 5855 5855 5854 5853 5853 5852 5851 5851 5851 5851 5850 5850 5849 5849 5849 5849 5849 5849 5848 5848 5847 5847 5846 5845 5844 5844 5843 5843 5843 5842 5842 5841 5841 5841 5840 5840 5840 5839 5839 5838 5838 5838 5838 5838 5838 5838 5838 5837 5837 5837 5838 5838 5838 5838 5838 5838 5838 5838 5838 5839 5839 5840 5840 5840
5859 5860 5860 5860 5859 5859 5859 5859 5859 5859 5859 5858 5858 5858 5857 5857 5856 5855 5855 5854 5854 5854 5853 5853 5852 5851 5851 5850 5850 5849 5849 5849 5849 5848 5848 5848 5848 5848 5848 5847 5847 5846 5846 5845 5844 5843 5843 5843 5842 5842 5841 5841 5840 5840 5840 5840 5839 5839 5839 5838 5838 5838 5837 5837 5837 5837 5837 5837 5837 5837 5837 5837 5838 5838 5838 5838 5838 5838 5838 5838 5838 5839 5839 5840 5840
5857 5858 5858 5858 5858 5858 5857 5857 5857 5857 5857 5857 5857 5856 5855 5854 5854 5853 5853 5853 5852 5852 5852 5852 5851 5850 5849 5849 5848 5848 5847 5848 5847 5847 5847 5847 5847 5846 5846 5846 5846 5845 5845 5844 5843 5843 5842 5842 5841 5841 5840 5840 5840 5839 5839 5839 5839 5838 5838 5838 5838 5837 5837 5837 5837 5837 5837 5837 5837 5837 5837 5837 5837 5838 5838 5838 5838 5838 5838 5838 5838 5838 5839 5839 5840
5855 5855 5856 5856 5856 5856 5855 5855 5855 5855 5855 5855 5855 5854 5853 5852 5852 5851 5851 5851 5851 5851 5850 5850 5849 5849 5848 5847 5847 5846 5846 5846 5846 5846 5845 5845 5845 5845 5845 5845 5845 5844 5844 5843 5842 5842 5841 5841 5840 5840 5839 5839 5839 5839 5839 5838 5838 5838 5837 5837 5837 5837 5837 5837 5837 5837 5837 5837 5837 5837 5837 5837 5837 5837 5837 5837 5838 5838 5838 5838 5838 5838 5839 5839 5839
5853 5853 5854 5854 5854 5854 5854 5854 5853 5853 5853 5853 5853 5852 5851 5850 5850 5849 5850 5850 5849 5849 5848 5848 5848 5847 5847 5846 5846 5845 5844 5844 5845 5844 5844 5844 5844 5844 5844 5844 5844 5843 5843 5842 5842 5841 5840 5840 5839 5839 5839 5838 5838 5838 5838 5838 5838 5837 5837 5837 5836 5836 5836 5836 5836 5836 5836 5836 5836 5836 5837 5837 5837 5837 5837 5837 5837 5838 5838 5838 5838 5838 5838 5839 5839
5851 5851 5852 5852 5852 5852 5852 5852 5852 5852 5851 5851 5850 5849 5848 5848 5848 5848 5848 5848 5848 5847 5846 5846 5846 5845 5845 5845 5845 5844 5843 5843 5843 5843 5843 5843 5843 5842 5843 5843 5843 5843 5842 5842 5841 5840 5840 5839 5839 5838 5838 5838 5838 5838 5837 5837 5837 5837 5837 5836 5836 5836 5836 5836 5836 5836 5836 5836 5836 5836 5836 5836 5837 5837 5837 5837 5837 5838 5838 5838 5838 5838 5838 5839 5839
5849 5849 5850 5850 5850 5850 5850 5850 5850 5850 5849 5849 5848 5847 5846 5846 5846 5846 5846 5846 5846 5845 5844 5844 5844 5844 5844 5844 5843 5842 5842 5841 5842 5842 5842 5841 5841 5841 5841 5842 5842 5841 5841 5841 5840 5840 5839 5838 5838 5837 5837 5837 5837 5837 5837 5837 5837 5836 5836 5836 5835 5835 5835 5835 5835 5835 5835 5835 5835 5835 5836 5836 5836 5837 5837 5837 5837 5837 5838 5838 5838 5838 5838 5838 5839
5847 5847 5847 5847 5848 5848 5848 5848 5848 5847 5847 5846 5845 5844 5844 5844 5844 5844 5844 5844 5844 5843 5842 5842 5842 5842 5842 5842 5841 5841 5840 5840 5840 5840 5840 5840 5840 5840 5840 5840 5840 5840 5840 5840 5840 5839 5838 5837 5837 5836 5836 5836 5836 5836 5836 5836 5836 5836 5836 5836 5835 5834 5834 5834 5834 5835 5834 5834 5835 5835 5835 5836 5836 5837 5837 5836 5837 5837 5838 5838 5838 5838 5838 5838 5839
5845 5845 5845 5845 5845 5846 5846 5846 5845 5845 5844 5844 5843 5842 5842 5842 5842 5842 5842 5842 5841 5841 5841 5841 5841 5841 5841 5840 5839 5839 5839 5839 5839 5838 5839 5839 5839 5839 5839 5839 5839 5839 5839 5839 5839 5839 5837 5836 5836 5835 5835 5835 5835 5835 5835 5835 5835 5835 5836 5835 5835 5834 5834 5834 5834 5834 5834 5834 5834 5834 5835 5835 5836 5836 5836 5836 5836 5837 5837 5838 5838 5838 5838 5838 5839
5843 5843 5843 5843 5843 5843 5843 5843 5843 5842 5842 5841 5840 5840 5839 5839 5840 5840 5840 5840 5839 5839 5839 5839 5839 5839 5839 5838 5837 5837 5837 5837 5837 5837 5837 5837 5838 5838 5838 5838 5838 5838 5838 5838 5837 5837 5837 5835 5835 5835 5835 5834 5834 5835 5835 5835 5835 5835 5835 5835 5835 5833 5833 5834 5834 5833 5833 5833 5834 5834 5834 5835 5835 5836 5836 5836 5836 5836 5837 5837 5838 5838 5838 5838 5839
5841 5841 5841 5841 5841 5841 5841 5841 5840 5840 5839 5838 5837 5837 5837 5837 5837 5838 5838 5838 5837 5837 5837 5837 5837 5837 5837 5836 5835 5835 5835 5835 5835 5835 5836 5836 5836 5836 5836 5837 5837 5837 5837 5836 5836 5836 5836 5835 5835 5834 5834 5833 5834 5834 5834 5834 5834 5834 5834 5835 5835 5833 5832 5833 5833 5833 5833 5833 5833 5834 5834 5834 5835 5835 5835 5835 5835 5836 5837 5837 5837 5838 5838 5838 5839
5839 5839 5839 5839 5838 5838 5838 5838 5838 5837 5836 5836 5835 5834 5834 5835 5836 5836 5836 5835 5835 5834 5835 5835 5835 5835 5834 5834 5834 5834 5834 5834 5834 5834 5834 5834 5835 5835 5835 5835 5835 5836 5836 5835 5836 5836 5836 5835 5835 5834 5833 5832 5832 5832 5833 5833 5833 5833 5834 5834 5834 5832 5831 5833 5832 5832 5832 5832 5833 5833 5833 5833 5834 5835 5835 5835 5835 5836 5836 5836 5837 5837 5838 5838 5838
5836 5836 5836 5836 5836 5836 5836 5835 5835 5835 5834 5833 5832 5832 5832 5833 5834 5834 5833 5832 5832 5833 5833 5833 5833 5832 5832 5832 5832 5832 5832 5832 5832 5832 5832 5833 5833 5833 5833 5834 5834 5835 5835 5835 5835 5836 5835 5835 5834 5833 5832 5832 5831 5831 5831 5832 5832 5832 5833 5834 5834 5832 5830 5832 5832 5831 5831 5832 5832 5832 5832 5833 5833 5834 5834 5835 5835 5835 5836 5836 5836 5837 5837 5837 5838
5834 5834 5834 5834 5834 5834 5833 5833 5832 5832 5831 5830 5829 5830 5830 5831 5831 5831 5830 5830 5831 5831 5831 5831 5830 5830 5830 5830 5830 5830 5831 5831 5830 5830 5831 5831 5831 5832 5832 5833 5833 5833 5834 5834 5834 5835 5834 5834 5833 5832 5831 5830 5830 5830 5830 5830 5831 5831 5832 5833 5834 5832 5830 5830 5831 5830 5831 5831 5831 5832 5832 5832 5833 5833 5834 5834 5834 5835 5835 5835 5836 5836 5836 5837 5837
5832 5832 5832 5832 5831 5831 5831 5830 5830 5829 5828 5828 5827 5828 5828 5828 5829 5829 5829 5829 5829 5829 5829 5828 5828 5828 5828 5828 5828 5829 5829 5829 5829 5829 5829 5829 5830 5830 5831 5831 5831 5832 5832 5833 5833 5834 5833 5832 5831 5830 5830 5829 5829 5829 5829 5829 5830 5830 5831 5832 5833 5832 5829 5829 5830 5830 5830 5830 5830 5831 5831 5832 5832 5833 5833 5833 5834 5834 5835 5835 5835 5836 5836 5836 5837
5829 5829 5829 5829 5829 5829 5828 5828 5827 5827 5827 5826 5826 5826 5825 5826 5826 5827 5827 5827 5827 5827 5826 5826 5826 5826 5826 5825 5826 5827 5828 5827 5827 5827 5827 5828 5829 5829 5829 5830 5830 5830 5831 5832 5832 5832 5831 5830 5829 5829 5828 5828 5827 5827 5827 5828 5829 5829 5829 5830 5832 5831 5829 5828 5829 5828 5828 5829 5829 5830 5830 5831 5832 5832 5832 5833 5833 5833 5834 5834 5835 5835 5836 5836 5836
5827 5827 5827 5827 5827 5826 5825 5825 5825 5825 5825 5824 5824 5823 5823 5823 5824 5825 5825 5824 5824 5824 5824 5824 5823 5823 5823 5823 5824 5825 5826 5826 5826 5826 5826 5826 5827 5827 5828 5828 5828 5829 5830 5831 5831 5830 5829 5829 5828 5827 5827 5826 5826 5826 5826 5826 5827 5827 5828 5829 5830 5830 5828 5827 5827 5827 5827 5827 5828 5829 5830 5830 5831 5831 5832 5832 5832 5832 5833 5833 5834 5834 5835 5835 5836
5825 5825 5824 5824 5824 5823 5823 5823 5824 5823 5822 5821 5821 5821 5821 5821 5822 5822 5822 5821 5821 5821 5821 5821 5821 5821 5821 5821 5822 5823 5824 5825 5825 5825 5825 5825 5825 5825 5826 5826 5827 5827 5828 5829 5829 5828 5827 5827 5826 5826 5825 5825 5825 5825 5824 5824 5824 5825 5825 5826 5828 5828 5827 5827 5827 5826 5826 5826 5827 5828 5829 5830 5830 5830 5831 5831 5831 5832 5832 5832 5833 5833 5834 5835 5835
5822 5822 5822 5821 5821 5820 5820 5821 5821 5821 5820 5819 5819 5819 5819 5819 5819 5819 5819 5819 5818 5818 5818 5818 5818 5818 5819 5819 5821 5822 5822 5823 5823 5824 5824 5824 5823 5823 5824 5824 5825 5826 5826 5827 5826 5826 5826 5825 5825 5824 5824 5825 5824 5823 5822 5822 5823 5823 5823 5824 5825 5826 5826 5826 5826 5825 5825 5825 5826 5827 5828 5829 5829 5829 5830 5830 5830 5831 5831 5832 5832 5832 5833 5833 5834
5820 5819 5819 5818 5817 5817 5818 5819 5819 5818 5818 5818 5817 5817 5817 5816 5817 5818 5817 5817 5817 5816 5816 5816 5816 5816 5817 5818 5819 5820 5821 5821 5822 5822 5822 5822 5822 5822 5822 5823 5824 5824 5824 5824 5824 5824 5824 5823 5823 5823 5823 5823 5823 5822 5821 5821 5822 5822 5822 5822 5824 5824 5824 5824 5824 5824 5824 5824 5825 5826 5827 5828 5828 5828 5828 5829 5829 5830 5830 5831 5831 5831 5832 5832 5833
5817 5816 5815 5815 5814 5815 5816 5817 5817 5816 5816 5816 5816 5816 5815 5815 5815 5816 5816 5816 5815 5815 5814 5814 5815 5815 5815 5817 5818 5819 5819 5820 5820 5820 5820 5820 5820 5821 5821 5822 5822 5822 5822 5822 5822 5822 5822 5822 5822 5822 5821 5821 5821 5820 5819 5820 5820 5821 5820 5820 5822 5822 5821 5822 5822 5823 5823 5824 5824 5825 5825 5826 5826 5827 5827 5828 5828 5829 5829 5830 5830 5830 5830 5831 5831
5814 5813 5812 5811 5812 5813 5814 5814 5814 5814 5814 5813 5813 5813 5813 5813 5813 5815 5815 5815 5814 5814 5813 5813 5813 5814 5815 5816 5817 5818 5818 5818 5818 5818 5819 5819 5820 5820 5821 5821 5821 5821 5820 5820 5820 5820 5820 5820 5820 5820 5820 5819 5819 5818 5818 5818 5819 5819 5819 5819 5819 5819 5819 5820 5820 5821 5822 5823 5823 5823 5824 5824 5825 5825 5825 5826 5827 5828 5828 5829 5829 5829 5829 5830 5830
5810 5809 5809 5809 5811 5811 5811 5811 5811 5812 5811 5811 5810 5810 5810 5810 5812 5813 5813 5813 5813 5813 5812 5812 5812 5813 5813 5815 5816 5817 5817 5817 5817 5817 5818 5819 5819 5819 5819 5819 5819 5819 5819 5818 5818 5818 5818 5818 5818 5818 5818 5817 5817 5816 5816 5817 5817 5817 5817 5817 5817 5816 5816 5818 5819 5820 5821 5822 5822 5823 5823 5824 5824 5824 5824 5825 5825 5826 5827 5827 5828 5828 5828 5829 5829
5806 5807 5807 5809 5810 5810 5810 5809 5809 5809 5809 5809 5808 5807 5808 5809 5810 5811 5811 5811 5811 5812 5811 5811 5811 5811 5812 5813 5814 5814 5814 5815 5816 5816 5817 5818 5818 5818 5818 5817 5817 5817 5817 5817 5816 5816 5816 5816 5816 5817 5817 5816 5815 5815 5815 5815 5816 5816 5815 5814 5815 5814 5814 5816 5818 5820 5821 5822 5823 5823 5823 5822 5823 5823 5823 5823 5824 5825 5826 5826 5826 5827 5827 5827 5828
5803 5804 5806 5809 5809 5808 5808 5807 5807 5807 5807 5807 5806 5805 5806 5808 5809 5809 5809 5809 5810 5811 5810 5810 5811 5811 5811 5812 5812 5812 5813 5814 5814 5815 5816 5816 5817 5816 5816 5816 5815 5815 5815 5815 5815 5814 5814 5814 5815 5815 5815 5814 5814 5814 5813 5814 5814 5814 5813 5812 5813 5813 5815 5817 5819 5821 5821 5821 5821 5820 5819 5820 5820 5821 5821 5822 5823 5823 5824 5824 5824 5825 5825 5826 5826
5800 5803 5806 5807 5806 5805 5805 5805 5805 5805 5805 5805 5804 5804 5805 5807 5807 5807 5807 5807 5809 5810 5809 5809 5810 5810 5810 5811 5811 5812 5812 5813 5813 5814 5815 5815 5815 5814 5814 5814 5814 5814 5814 5813 5813 5813 5813 5813 5813 5813 5813 5812 5812 5812 5812 5812 5812 5812 5811 5810 5812 5813 5816 5818 5819 5820 5819 5817 5817 5816 5817 5818 5818 5819 5819 5820 5821 5821 5822 5822 5823 5823 5823 5824 5824
5799 5802 5804 5803 5802 5802 5802 5803 5803 5803 5803 5803 5803 5803 5804 5805 5806 5805 5806 5806 5807 5809 5809 5808 5808 5809 5809 5810 5810 5811 5811 5812 5812 5813 5813 5813 5813 5812 5812 5812 5812 5812 5812 5812 5812 5812 5812 5812 5811 5811 5811 5811 5811 5811 5810 5810 5810 5810 5810 5809 5811 5813 5816 5817 5817 5817 5815 5814 5815 5816 5817 5817 5817 5817 5818 5818 5819 5819 5820 5821 5821 5821 5822 5822 5823
5798 5800 5801 5801 5801 5800 5800 5800 5801 5801 5801 5801 5802 5802 5803 5804 5805 5805 5805 5805 5805 5806 5807 5808 5808 5808 5808 5809 5809 5809 5810 5811 5811 5812 5812 5811 5811 5811 5810 5810 5810 5810 5811 5811 5811 5811 5810 5810 5810 5809 5809 5809 5809 5808 5809 5809 5809 5809 5809 5809 5811 5813 5814 5815 5815 5814 5813 5814 5814 5815 5816 5816 5816 5816 5816 5817 5817 5818 5819 5819 5820 5820 5821 5821 5821
5795 5796 5798 5799 5799 5799 5799 5799 5799 5800 5800 5800 5801 5801 5801 5803 5804 5803 5803 5803 5804 5805 5806 5807 5807 5807 5807 5808 5808 5808 5809 5809 5810 5810 5810 5810 5810 5809 5809 5809 5809 5809 5809 5809 5809 5809 5809 5809 5808 5808 5807 5807 5807 5806 5807 5807 5807 5808 5809 5809 5810 5812 5813 5813 5812 5812 5812 5813 5812 5813 5814 5814 5815 5815 5815 5815 5816 5816 5817 5818 5818 5819 5820 5819 5819
5792 5793 5796 5797 5798 5798 5797 5797 5798 5798 5798 5799 5799 5800 5800 5801 5801 5801 5802 5802 5803 5804 5805 5805 5806 5806 5806 5807 5807 5807 5808 5808 5808 5808 5808 5808 5808 5808 5808 5808 5808 5808 5808 5809 5809 5808 5808 5808 5807 5807 5806 5805 5805 5805 5805 5806 5806 5807 5808 5808 5809 5810 5810 5810 5810 5811 5811 5811 5811 5811 5812 5813 5813 5814 5814 5814 5814 5814 5815 5816 5817 5817 5818 5818 5817
5791 5792 5794 5795 5796 5796 5795 5795 5796 5796 5797 5797 5798 5798 5799 5799 5799 5800 5801 5801 5802 5803 5803 5803 5803 5804 5804 5805 5806 5806 5807 5806 5806 5807 5807 5807 5807 5806 5807 5807 5807 5807 5808 5808 5808 5808 5807 5807 5806 5806 5805 5804 5804 5804 5804 5805 5805 5806 5807 5807 5807 5808 5808 5809 5809 5810 5809 5809 5810 5810 5811 5811 5811 5812 5813 5813 5813 5813 5813 5813 5814 5815 5815 5815 5815
5790 5791 5792 5793 5793 5794 5794 5794 5794 5795 5795 5796 5796 5797 5797 5798 5798 5798 5799 5800 5801 5801 5801 5801 5801 5801 5802 5803 5804 5805 5805 5805 5805 5806 5805 5805 5805 5805 5806 5806 5806 5806 5807 5807 5807 5807 5807 5806 5805 5805 5804 5804 5803 5803 5803 5804 5805 5805 5806 5806 5805 5806 5807 5808 5808 5809 5809 5809 5809 5809 5809 5810 5810 5811 5812 5812 5812 5811 5811 5811 5812 5812 5813 5813 5813
5789 5790 5790 5791 5792 5793 5793 5792 5792 5793 5793 5794 5794 5795 5795 5796 5796 5796 5797 5798 5798 5798 5799 5799 5799 5800 5801 5802 5802 5803 5803 5804 5804 5804 5804 5804 5804 5804 5805 5805 5805 5805 5805 5806 5806 5806 5805 5805 5804 5804 5804 5803 5803 5803 5803 5804 5804 5804 5804 5804 5804 5804 5805 5807 5807 5808 5808 5809 5809 5808 5809 5809 5810 5810 5811 5811 5810 5810 5810 5810 5810 5811 5811 5811 5810
5788 5788 5789 5790 5791 5791 5791 5790 5790 5791 5791 5792 5792 5793 5794 5794 5794 5794 5795 5795 5795 5796 5797 5798 5798 5799 5800 5800 5801 5802 5802 5803 5803 5803 5802 5802 5802 5803 5803 5803 5804 5804 5804 5805 5805 5804 5804 5803 5803 5803 5803 5803 5802 5802 5803 5804 5804 5803 5803 5803 5804 5804 5805 5806 5807 5808 5808 5808 5808 5808 5808 5809 5809 5809 5809 5809 5809 5809 5809 5809 5809 5809 5809 5809 5809
5788 5788 5788 5789 5789 5789 5789 5788 5788 5788 5788 5789 5790 5791 5792 5792 5793 5793 5793 5793 5793 5794 5795 5796 5797 5798 5799 5800 5801 5801 5801 5801 5801 5801 5801 5801 5801 5801 5801 5802 5802 5802 5803 5803 5803 5803 5802 5802 5802 5802 5802 5802 5802 5802 5803 5804 5804 5803 5803 5803 5804 5804 5805 5805 5806 5807 5808 5808 5808 5808 5808 5808 5808 5809 5808 5808 5808 5808 5807 5807 5807 5807 5807 5808 5808
5787 5787 5787 5787 5787 5787 5787 5786 5786 5785 5786 5787 5788 5789 5790 5791 5791 5792 5792 5791 5792 5792 5793 5795 5797 5797 5798 5799 5800 5800 5800 5800 5800 5800 5800 5799 5799 5799 5800 5800 5801 5801 5801 5801 5801 5801 5801 5801 5801 5801 5801 5801 5801 5802 5803 5803 5804 5803 5803 5803 5804 5804 5804 5804 5805 5806 5806 5806 5807 5807 5807 5807 5807 5807 5807 5807 5807 5807 5807 5806 5806 5806 5806 5806 5806
5785 5786 5786 5785 5785 5784 5784 5784 5783 5783 5784 5785 5786 5787 5788 5789 5789 5790 5790 5790 5791 5792 5793 5794 5795 5796 5797 5797 5798 5798 5798 5798 5799 5798 5798 5798 5798 5798 5798 5799 5799 5800 5800 5800 5800 5800 5800 5800 5799 5799 5799 5800 5800 5801 5802 5803 5803 5803 5803 5803 5803 5803 5803 5803 5804 5804 5805 5805 5805 5806 5806 5806 5806 5806 5806 5807 5807 5806 5806 5805 5805 5804 5804 5804 5804
5783 5784 5784 5784 5783 5782 5782 5782 5782 5782 5782 5783 5784 5785 5787 5787 5787 5788 5789 5790 5790 5790 5791 5792 5793 5794 5795 5795 5795 5796 5796 5796 5796 5796 5796 5796 5796 5797 5797 5797 5798 5798 5798 5798 5798 5798 5798 5798 5798 5798 5798 5798 5799 5800 5801 5802 5802 5802 5802 5802 5802 5802 5802 5802 5803 5803 5804 5804 5804 5805 5805 5805 5805 5805 5806 5806 5806 5805 5804 5804 5804 5804 5803 5803 5803
5781 5782 5783 5783 5782 5780 5780 5780 5780 5781 5781 5781 5782 5783 5785 5785 5786 5786 5787 5788 5788 5789 5790 5790 5791 5792 5792 5793 5793 5794 5794 5795 5795 5795 5795 5795 5795 5795 5795 5796 5796 5796 5796 5797 5797 5797 5797 5797 5798 5798 5798 5797 5798 5799 5800 5801 5801 5801 5801 5801 5801 5802 5801 5801 5802 5802 5803 5803 5803 5803 5804 5804 5804 5804 5805 5805 5804 5803 5803 5803 5802 5802 5802 5802 5802
5780 5781 5781 5781 5780 5779 5778 5778 5778 5779 5779 5779 5780 5781 5782 5783 5784 5785 5786 5787 5787 5788 5788 5788 5789 5789 5790 5792 5793 5794 5794 5794 5794 5794 5794 5794 5794 5794 5794 5794 5795 5795 5795 5795 5795 5795 5796 5796 5797 5797 5797 5797 5797 5797 5798 5799 5800 5800 5801 5801 5801 5801 5800 5800 5800 5801 5801 5802 5802 5802 5802 5803 5803 5803 5804 5804 5803 5802 5802 5802 5800 5800 5801 5801 5801
5778 5778 5779 5778 5778 5777 5776 5776 5777 5777 5777 5778 5778 5779 5780 5781 5782 5783 5784 5785 5786 5787 5787 5787 5788 5789 5790 5792 5793 5794 5793 5792 5792 5792 5792 5792 5793 5793 5793 5793 5794 5794 5793 5794 5794 5794 5794 5795 5796 5796 5796 5796 5796 5796 5796 5797 5798 5799 5799 5799 5799 5799 5799 5799 5799 5799 5799 5800 5800 5800 5800 5801 5802 5802 5803 5802 5802 5801 5801 5800 5799 5799 5800 5800 5800
5775 5775 5776 5775 5775 5774 5774 5774 5774 5774 5775 5775 5776 5777 5778 5779 5780 5782 5783 5784 5785 5786 5786 5787 5788 5790 5791 5792 5792 5791 5791 5791 5791 5791 5791 5791 5791 5791 5792 5792 5792 5792 5792 5793 5793 5793 5793 5794 5794 5795 5795 5796 5796 5796 5796 5796 5797 5797 5797 5797 5797 5798 5798 5798 5798 5798 5798 5798 5799 5799 5799 5800 5800 5801 5801 5801 5801 5800 5800 5799 5798 5798 5798 5799 5798
5772 5772 5772 5772 5772 5772 5771 5771 5771 5772 5772 5773 5773 5775 5776 5777 5778 5779 5781 5782 5783 5783 5784 5786 5788 5789 5790 5790 5789 5789 5789 5789 5789 5789 5789 5789 5789 5790 5790 5790 5790 5791 5791 5791 5791 5792 5792 5793 5793 5794 5794 5794 5795 5795 5795 5795 5795 5795 5795 5795 5795 5796 5796 5796 5796 5797 5797 5798 5798 5798 5798 5799 5799 5799 5799 5799 5798 5798 5798 5798 5797 5797 5797 5797 5797
5769 5769 5769 5769 5769 5769 5769 5769 5769 5769 5770 5770 5771 5773 5774 5775 5776 5777 5778 5779 5780 5781 5783 5784 5786 5787 5787 5787 5787 5787 5787 5787 5787 5787 5787 5788 5788 5788 5788 5789 5789 5790 5790 5790 5790 5790 5791 5791 5792 5793 5793 5793 5794 5794 5794 5794 5793 5794 5794 5794 5794 5794 5794 5794 5794 5795 5796 5797 5797 5797 5797 5797 5798 5798 5797 5797 5796 5796 5796 5796 5796 5795 5795 5795 5795
5766 5766 5766 5766 5767 5767 5768 5768 5768 5768 5768 5769 5770 5771 5772 5773 5774 5775 5776 5777 5778 5779 5781 5783 5785 5785 5785 5785 5785 5785 5785 5786 5786 5786 5786 5786 5786 5786 5787 5787 5788 5788 5789 5789 5789 5789 5789 5790 5790 5791 5792 5792 5793 5793 5793 5793 5793 5793 5793 5793 5792 5792 5792 5792 5792 5793 5794 5795 5796 5796 5796 5796 5796 5796 5795 5795 5795 5794 5794 5794 5794 5794 5794 5794 5794
5764 5764 5764 5764 5765 5765 5766 5767 5767 5767 5767 5768 5769 5770 5771 5772 5772 5773 5774 5775 5776 5777 5779 5781 5782 5783 5783 5783 5783 5784 5784 5785 5785 5785 5784 5784 5785 5785 5785 5786 5786 5787 5788 5788 5788 5788 5788 5788 5789 5789 5790 5791 5791 5792 5792 5792 5792 5792 5792 5791 5791 5791 5790 5790 5790 5791 5792 5793 5794 5795 5794 5794 5794 5793 5793 5793 5793 5793 5793 5793 5793 5793 5793 5792 5792
5761 5762 5762 5763 5764 5764 5765 5765 5765 5765 5766 5767 5768 5769 5770 5770 5771 5772 5773 5774 5774 5775 5777 5778 5779 5780 5780 5781 5781 5782 5783 5783 5783 5783 5783 5782 5783 5783 5784 5784 5785 5786 5786 5786 5786 5786 5786 5786 5787 5787 5788 5789 5789 5790 5790 5790 5790 5791 5790 5790 5790 5789 5788 5788 5788 5789 5790 5791 5792 5792 5793 5792 5792 5792 5791 5792 5792 5792 5792 5792 5791 5791 5791 5791 5790